Weather History for Algona, IA

Change the Weather History Date:

Saturday, November 17, 2012

  Actual Average Record
Temperature  
Mean Temperature 47 °F -  
Max Temperature 59 °F 42 °F 69 °F (2001)
Min Temperature 35 °F 25 °F 5 °F (2005)
Degree Days  
Heating Degree Days 18    
Moisture  
Dew Point 33 °F    
Average Humidity 61    
Maximum Humidity 87    
Minimum Humidity 36    
Precipitation  
Precipitation 0.00 in - - ()
Sea Level Pressure  
Sea Level Pressure 30.24 in    
Wind  
Wind Speed 16 mph (South)    
Max Wind Speed 28 mph    
Max Gust Speed 37 mph    
Visibility 10 miles    
Events      
Averages and records for this station are not official NWS values.
T = Trace of Precipitation, MM = Missing Value Source: NWS Daily Summary

Daily Weather History Graph

Daily Weather History Graph

Search for Another Location

Airport:

Trip Planner

Search our weather history database for the weather conditions in past years. The results will help you decide how hot, cold, wet, or windy it might be!

Date:

Astronomy

Nov. 17, 2012 Rise Set
Actual Time 7:12 AM CST 4:51 PM CST
Civil Twilight 6:42 AM CST 5:21 PM CST
Nautical Twilight 6:07 AM CST 5:56 PM CST
Astronomical Twilight 5:33 AM CST 6:30 PM CST
Moon 10:58 AM CST (11/17) 9:02 PM CST (11/17)
Length of Visible Light 10h 39m
Length of Day
9h 38m
Waxing Crescent, 20% of the Moon is Illuminated
Nov 17
Waxing Crescent
Nov 20
First Quarter
Nov 28
Full
Dec 6
Last Quarter
Dec 13
New

Hourly Weather History & Observations

Time (CST) Temp. Windchill Dew Point Humidity Pressure Visibility Wind Dir Wind Speed Gust Speed Precip Events Conditions
12:15 AM 37.4 °F 29.8 °F 32.0 °F 81% 30.31 in 10.0 mi SSE 11.5 mph - N/A   Clear
12:35 AM 37.4 °F 28.9 °F 30.2 °F 75% 30.31 in 9.0 mi SSE 13.8 mph - N/A   Clear
12:55 AM 37.4 °F 30.3 °F 30.2 °F 75% 30.31 in 9.0 mi SSE 10.4 mph 16.1 mph N/A   Clear
1:15 AM 37.4 °F 29.8 °F 30.2 °F 75% 30.31 in 10.0 mi South 11.5 mph - N/A   Clear
1:35 AM 35.6 °F 27.1 °F 30.2 °F 81% 30.31 in 10.0 mi South 12.7 mph - N/A   Clear
1:55 AM 35.6 °F 27.1 °F 30.2 °F 81% 30.31 in 10.0 mi South 12.7 mph - N/A   Clear
2:15 AM 35.6 °F 27.5 °F 30.2 °F 81% 30.31 in 10.0 mi South 11.5 mph - N/A   Clear
2:35 AM 37.4 °F 28.9 °F 32.0 °F 81% 30.31 in 10.0 mi South 13.8 mph - N/A   Clear
2:55 AM 37.4 °F 28.2 °F 32.0 °F 81% 30.31 in 10.0 mi South 16.1 mph - N/A   Clear
3:15 AM 37.4 °F 28.2 °F 32.0 °F 81% 30.30 in 10.0 mi South 16.1 mph - N/A   Clear
3:55 AM 37.4 °F 28.5 °F 32.0 °F 81% 30.29 in 10.0 mi South 15.0 mph - N/A   Clear
4:15 AM 37.4 °F 28.5 °F 32.0 °F 81% 30.29 in 10.0 mi South 15.0 mph - N/A   Clear
4:35 AM 37.4 °F 28.5 °F 32.0 °F 81% 30.29 in 10.0 mi South 15.0 mph - N/A   Clear
4:55 AM 35.6 °F 26.6 °F 32.0 °F 87% 30.29 in 10.0 mi South 13.8 mph - N/A   Clear
5:15 AM 37.4 °F 28.5 °F 32.0 °F 81% 30.28 in 10.0 mi South 15.0 mph - N/A   Clear
5:35 AM 37.4 °F 29.3 °F 32.0 °F 81% 30.29 in 10.0 mi South 12.7 mph - N/A   Clear
5:55 AM 35.6 °F 26.6 °F 32.0 °F 87% 30.28 in 10.0 mi South 13.8 mph - N/A   Clear
6:15 AM 35.6 °F 26.2 °F 32.0 °F 87% 30.28 in 10.0 mi SSE 15.0 mph - N/A   Clear
6:35 AM 35.6 °F 25.9 °F 32.0 °F 87% 30.28 in 10.0 mi SSE 16.1 mph - N/A   Clear
6:55 AM 35.6 °F 26.2 °F 32.0 °F 87% 30.28 in 9.0 mi SSE 15.0 mph - N/A   Clear
7:15 AM 35.6 °F 26.6 °F 32.0 °F 87% 30.28 in 7.0 mi South 13.8 mph - N/A   Clear
7:35 AM 35.6 °F 26.6 °F 32.0 °F 87% 30.29 in 8.0 mi South 13.8 mph - N/A   Clear
7:55 AM 37.4 °F 28.5 °F 32.0 °F 81% 30.29 in 8.0 mi South 15.0 mph - N/A   Clear
8:15 AM 37.4 °F 28.9 °F 32.0 °F 81% 30.28 in - South 13.8 mph - N/A   Clear
8:35 AM 37.4 °F 28.5 °F 33.8 °F 87% 30.29 in 8.0 mi South 15.0 mph - N/A   Clear
8:55 AM 41.0 °F 32.8 °F 33.8 °F 76% 30.29 in 9.0 mi South 16.1 mph - N/A   Clear
9:15 AM 42.8 °F 34.8 °F 35.6 °F 76% 30.29 in 9.0 mi South 17.3 mph - N/A   Clear
9:35 AM 44.6 °F 36.4 °F 35.6 °F 71% 30.29 in 10.0 mi South 20.7 mph - N/A   Clear
9:55 AM 46.4 °F 39.8 °F 37.4 °F 71% 30.29 in 9.0 mi South 16.1 mph - N/A   Clear
10:15 AM 48.2 °F - 37.4 °F 66% 30.29 in 9.0 mi South 17.3 mph - N/A   Clear
10:35 AM 50.0 °F - 37.4 °F 62% 30.29 in 10.0 mi South 18.4 mph - N/A   Clear
11:55 AM 55.4 °F - 33.8 °F 44% 30.25 in 10.0 mi South 20.7 mph 29.9 mph N/A   Clear
12:15 PM 55.4 °F - 33.8 °F 44% 30.24 in 10.0 mi South 21.9 mph 27.6 mph N/A   Clear
12:35 PM 57.2 °F - 35.6 °F 44% 30.23 in 10.0 mi South 23.0 mph 29.9 mph N/A   Clear
12:55 PM 57.2 °F - 33.8 °F 41% 30.22 in 10.0 mi South 27.6 mph - N/A   Clear
1:15 PM 57.2 °F - 33.8 °F 41% 30.21 in 10.0 mi South 25.3 mph - N/A   Clear
1:35 PM 57.2 °F - 35.6 °F 44% 30.20 in 10.0 mi South 24.2 mph 31.1 mph N/A   Clear
1:55 PM 59.0 °F - 33.8 °F 39% 30.20 in 10.0 mi South 27.6 mph - N/A   Clear
2:15 PM 59.0 °F - 33.8 °F 39% 30.19 in 10.0 mi South 23.0 mph 29.9 mph N/A   Clear
2:35 PM 59.0 °F - 32.0 °F 36% 30.19 in 10.0 mi South 27.6 mph 36.8 mph N/A   Clear
2:55 PM 59.0 °F - 32.0 °F 36% 30.19 in 10.0 mi South 27.6 mph 34.5 mph N/A   Clear
3:15 PM 57.2 °F - 32.0 °F 38% 30.20 in 10.0 mi South 21.9 mph 31.1 mph N/A   Clear
3:35 PM 57.2 °F - 32.0 °F 38% 30.19 in 10.0 mi South 19.6 mph 27.6 mph N/A   Clear
3:55 PM 57.2 °F - 32.0 °F 38% 30.20 in 10.0 mi South 17.3 mph 24.2 mph N/A   Clear
4:15 PM 57.2 °F - 32.0 °F 38% 30.19 in 10.0 mi SSE 18.4 mph 25.3 mph N/A   Scattered Clouds
4:35 PM 55.4 °F - 32.0 °F 41% 30.19 in 10.0 mi SSE 17.3 mph 25.3 mph N/A   Mostly Cloudy
4:55 PM 55.4 °F - 32.0 °F 41% 30.19 in 10.0 mi SSE 18.4 mph 24.2 mph N/A   Scattered Clouds
5:15 PM 53.6 °F - 32.0 °F 44% 30.18 in 10.0 mi SSE 17.3 mph 25.3 mph N/A   Clear
5:35 PM 53.6 °F - 32.0 °F 44% 30.18 in 10.0 mi SSE 18.4 mph - N/A   Clear
5:55 PM 53.6 °F - 32.0 °F 44% 30.18 in 10.0 mi SSE 18.4 mph 24.2 mph N/A   Clear
6:15 PM 51.8 °F - 32.0 °F 47% 30.19 in 10.0 mi SSE 16.1 mph 25.3 mph N/A   Scattered Clouds
6:35 PM 51.8 °F - 32.0 °F 47% 30.19 in 10.0 mi SSE 16.1 mph - N/A   Clear
6:55 PM 51.8 °F - 33.8 °F 50% 30.20 in 10.0 mi SSE 12.7 mph 20.7 mph N/A   Mostly Cloudy
7:15 PM 51.8 °F - 33.8 °F 50% 30.19 in 10.0 mi SSE 15.0 mph - N/A   Overcast
7:35 PM 51.8 °F - 33.8 °F 50% 30.20 in 10.0 mi SSE 13.8 mph 23.0 mph N/A   Overcast
7:55 PM 50.0 °F - 33.8 °F 54% 30.20 in 10.0 mi SSE 13.8 mph 20.7 mph N/A   Overcast
8:15 PM 50.0 °F - 33.8 °F 54% 30.20 in 10.0 mi SSE 15.0 mph 21.9 mph N/A   Overcast
8:35 PM 50.0 °F - 33.8 °F 54% 30.20 in 10.0 mi South 18.4 mph - N/A   Overcast
8:55 PM 51.8 °F - 32.0 °F 47% 30.20 in 10.0 mi South 19.6 mph 26.5 mph N/A   Overcast
9:15 PM 50.0 °F - 32.0 °F 50% 30.20 in 10.0 mi SSE 19.6 mph - N/A   Overcast
9:35 PM 50.0 °F - 32.0 °F 50% 30.20 in 10.0 mi SSE 17.3 mph 24.2 mph N/A   Overcast
9:55 PM 50.0 °F - 33.8 °F 54% 30.20 in 10.0 mi SSE 16.1 mph - N/A   Overcast
10:15 PM 50.0 °F - 33.8 °F 54% 30.20 in 10.0 mi SSE 13.8 mph 20.7 mph N/A   Overcast
10:35 PM 50.0 °F - 33.8 °F 54% 30.20 in 10.0 mi SSE 17.3 mph 26.5 mph N/A   Overcast
10:55 PM 50.0 °F - 33.8 °F 54% 30.20 in 10.0 mi South 19.6 mph 26.5 mph N/A   Overcast
11:15 PM 50.0 °F - 32.0 °F 50% 30.19 in 10.0 mi South 23.0 mph - N/A   Overcast
11:35 PM 50.0 °F - 32.0 °F 50% 30.19 in 10.0 mi South 19.6 mph - N/A   Overcast
11:55 PM 50.0 °F - 32.0 °F 50% 30.19 in 10.0 mi South 19.6 mph 26.5 mph N/A   Overcast